Terug naar catalogus

OPS 7684 DEB

ActiefPO
NORAD 3618·DEBRIS·🇺🇸 United States

Gelanceerd Dec 12, 1968 vanaf Vandenberg Space Force Base

Loading…

Volgende Passages (komende 24 uur)

TLE

VersSource: Space-Track

Epoch: Sep 13, 2026, 02:26 UTC

1 03618U 68112D   26256.10162880  .00000079  00000-0  43268-3 0  9995
2 03618  80.5350 129.4636 0085669  13.9924 138.4587 12.55911077646093

Volg OPS 7684 DEB in realtime met AllMySat

Download on the App Store